Date,TemperatureHighF,TemperatureAvgF,TemperatureLowF,DewpointHighF,DewpointAvgF,DewpointLowF,HumidityHigh,HumidityAvg,HumidityLow,PressureMaxIn,PressureMinIn,WindSpeedMaxMPH,WindSpeedAvgMPH,GustSpeedMaxMPH,PrecipitationSumIn
2012-1-1,81.0,75.1,70.7,73.0,70.2,68.0,96,85,65,30.11,29.99,8,2,17,0.00
2012-1-2,80.0,72.6,68.4,74.0,69.6,67.0,96,90,71,30.07,29.95,8,1,14,0.00
2012-1-3,82.3,74.8,69.3,74.0,70.8,68.0,97,88,71,30.05,29.92,7,1,9,0.00
2012-1-4,81.1,73.5,68.7,73.0,69.5,67.0,96,87,71,30.06,29.95,6,1,10,0.00
2012-1-5,80.3,73.6,70.3,73.0,70.0,68.0,95,88,74,30.04,29.91,5,1,10,0.00
2012-1-6,81.1,73.3,68.2,74.0,70.2,67.0,96,89,75,30.03,29.93,9,1,9,0.00
2012-1-7,82.8,74.3,69.5,73.0,70.2,68.0,97,87,68,30.06,29.95,5,1,11,0.00
2012-1-8,82.6,74.0,69.1,72.0,69.1,67.0,97,85,62,30.06,29.96,7,1,12,0.00
2012-1-9,82.9,73.9,68.5,72.0,69.4,67.0,95,86,68,30.04,29.93,8,1,12,0.00
2012-1-10,82.7,73.8,67.9,72.0,68.7,67.0,96,85,62,29.99,29.90,8,1,11,0.00
2012-1-11,81.2,72.6,68.5,72.0,68.6,66.0,97,88,70,30.00,29.91,8,1,11,0.00
2012-1-12,80.9,72.0,66.4,70.0,66.9,64.0,96,85,57,30.05,29.94,6,1,13,0.00
2012-1-13,81.8,74.3,69.9,74.0,70.3,68.0,96,88,72,30.11,29.98,9,2,14,0.00
2012-1-14,83.5,75.0,70.3,73.0,69.1,65.0,94,83,57,30.12,30.01,10,1,15,0.00
2012-1-15,81.0,74.0,69.7,71.0,68.6,67.0,93,84,70,30.15,30.04,4,1,9,0.00
2012-1-16,78.6,72.4,68.0,72.0,68.2,65.0,97,87,65,30.14,30.03,7,2,16,0.00
2012-1-17,78.5,72.0,68.4,72.0,68.2,67.0,96,88,70,30.12,30.02,8,2,17,0.00
2012-1-18,76.5,70.7,67.5,69.0,67.7,67.0,97,90,73,30.07,29.95,8,1,13,0.00
2012-1-19,83.0,73.0,67.7,70.0,67.2,64.0,96,83,59,30.04,29.93,7,2,8,0.00
2012-1-20,78.9,72.8,68.9,70.0,68.3,67.0,95,86,72,30.04,29.94,9,2,14,0.00
2012-1-21,78.8,72.4,68.0,73.0,68.5,66.0,93,87,76,30.05,29.97,5,1,12,0.00
2012-1-22,80.0,72.4,67.7,71.0,67.6,66.0,94,85,67,30.04,29.95,10,2,15,0.00
2012-1-23,79.0,72.3,68.2,69.0,66.8,65.0,92,83,68,30.04,29.92,9,2,15,0.00
2012-1-24,77.4,70.5,67.0,69.0,65.9,63.0,97,86,68,30.04,29.95,7,2,16,0.00
2012-1-25,78.7,72.2,66.8,69.0,66.1,64.0,92,82,64,30.05,29.96,11,2,19,0.00
2012-1-26,77.2,70.5,67.2,69.0,66.8,65.0,94,88,73,30.06,29.96,8,2,13,0.00
2012-1-27,80.3,71.9,67.2,70.0,66.8,64.0,94,85,59,30.08,29.99,11,1,13,0.00
2012-1-28,79.9,72.0,66.5,70.0,67.2,65.0,96,85,65,30.11,30.00,9,2,12,0.05
2012-1-29,80.7,71.5,67.8,71.0,67.4,65.0,96,87,62,30.11,30.00,8,1,21,0.01
2012-1-30,80.8,72.4,67.7,73.0,68.3,65.0,95,87,69,30.09,29.97,7,2,13,0.02
2012-1-31,79.4,72.6,68.5,72.0,68.3,67.0,97,87,70,30.08,29.98,14,2,16,0.01
2012-2-1,81.1,73.3,69.0,72.0,68.2,66.0,95,84,67,30.06,29.97,9,1,18,0.06
2012-2-2,82.1,72.8,67.6,72.0,68.6,66.0,95,87,69,30.04,29.93,8,1,11,0.01
2012-2-3,80.7,72.6,67.5,72.0,68.3,64.0,96,86,70,30.04,29.93,8,1,14,0.02
2012-2-4,76.2,71.1,68.2,69.0,67.4,66.0,97,88,73,30.04,29.93,8,2,18,0.03
2012-2-5,80.6,73.2,66.7,71.0,67.9,65.0,97,84,60,30.03,29.92,9,2,14,0.01
2012-2-6,80.4,72.5,68.3,73.0,69.1,67.0,96,89,71,30.05,29.94,9,1,13,0.19
2012-2-7,81.7,73.1,67.6,70.0,68.3,66.0,95,85,65,30.03,29.93,13,1,14,0.01
2012-2-8,80.9,72.7,68.0,74.0,69.0,67.0,97,88,65,30.02,29.90,10,2,16,0.20
2012-2-9,81.5,74.3,69.2,73.0,70.4,68.0,97,88,71,30.03,29.92,10,2,15,0.01
2012-2-10,83.6,74.9,70.1,73.0,70.1,69.0,97,86,67,30.03,29.94,12,2,16,0.00
2012-2-11,83.2,75.0,69.8,72.0,68.9,66.0,95,82,59,30.00,29.91,8,2,15,0.01
2012-2-12,82.5,74.1,67.8,72.0,67.5,64.0,95,81,61,30.00,29.89,7,1,13,0.00
2012-2-13,83.7,72.4,64.8,70.0,66.6,63.0,96,83,56,30.00,29.89,5,1,11,0.50
2012-2-14,78.3,71.3,67.9,72.0,69.3,67.0,98,93,77,30.05,29.93,5,1,7,0.13
2012-2-15,79.1,72.3,69.6,72.0,69.4,68.0,95,91,74,30.07,29.98,9,2,16,0.11
2012-2-16,77.8,72.3,69.2,72.0,69.3,68.0,97,90,76,30.06,29.96,12,2,13,0.01
2012-2-17,80.6,72.9,68.4,70.0,67.5,66.0,96,84,66,30.01,29.93,7,2,13,0.01
2012-2-18,81.7,72.1,67.1,69.0,67.4,65.0,95,86,61,30.00,29.92,6,2,13,0.41
2012-2-19,80.3,72.5,65.6,71.0,67.9,65.0,96,86,67,30.01,29.93,8,2,15,0.01
2012-2-20,83.2,73.3,66.3,69.0,66.3,63.0,97,80,52,30.04,29.92,6,1,11,0.00
2012-2-21,81.2,72.8,66.1,73.0,68.2,64.0,96,86,70,30.06,29.97,10,1,12,0.00
2012-2-22,83.9,74.4,68.5,70.0,68.0,65.0,94,81,56,30.06,29.94,8,1,12,0.01
2012-2-23,83.2,75.0,69.5,73.0,69.6,67.0,96,84,62,30.06,29.95,9,1,11,0.01
2012-2-24,83.0,74.9,69.0,72.0,68.3,63.0,96,81,58,30.07,29.96,11,2,13,0.04
2012-2-25,83.2,75.1,68.8,71.0,68.3,66.0,95,80,57,30.07,29.96,9,2,16,0.00
2012-2-26,82.4,73.8,69.0,72.0,68.5,66.0,96,84,60,30.10,30.01,10,2,15,0.10
2012-2-27,81.7,73.9,68.5,71.0,67.3,65.0,94,81,62,30.13,30.04,11,2,19,0.08
2012-2-28,80.6,72.8,69.2,72.0,68.0,65.0,91,85,72,30.09,29.99,9,2,15,0.20
2012-2-29,81.7,73.4,67.7,70.0,67.5,65.0,93,82,58,30.08,29.98,11,2,15,0.00
2012-3-1,79.3,72.7,68.8,74.0,68.9,67.0,95,88,76,30.06,29.98,9,2,25,0.06
2012-3-2,83.4,74.6,68.6,72.0,69.1,67.0,94,84,64,30.06,29.98,9,2,16,0.00
2012-3-3,82.7,74.9,70.2,72.0,69.4,67.0,94,84,64,30.05,29.96,9,2,18,0.04
2012-3-4,82.5,75.0,70.6,72.0,70.0,69.0,94,85,64,30.07,29.97,11,2,18,0.08
2012-3-5,81.4,73.8,69.7,73.0,69.3,67.0,95,86,65,30.11,30.00,9,2,19,0.10
2012-3-6,82.8,74.0,68.9,70.0,66.4,61.0,93,78,52,30.11,30.01,14,2,22,0.00
2012-3-7,77.0,71.3,68.5,71.0,67.6,66.0,96,88,72,30.11,30.02,7,1,15,0.25
2012-3-8,80.3,73.1,67.6,70.0,67.3,65.0,96,83,64,30.08,29.98,11,2,23,0.08
2012-3-9,81.8,73.6,66.8,71.0,66.9,64.0,93,80,61,30.04,29.93,10,2,13,0.00
2012-3-10,83.4,74.1,66.6,71.0,68.3,65.0,95,82,57,30.04,29.95,8,1,13,0.01
2012-3-11,80.6,73.7,68.1,71.0,68.3,66.0,94,83,68,30.06,29.98,12,2,17,0.01
2012-3-12,79.4,72.5,69.5,71.0,68.2,66.0,94,86,72,30.05,29.98,8,2,20,0.04
2012-3-13,80.1,73.7,68.9,69.0,66.9,65.0,89,80,64,30.05,29.97,10,3,14,0.00
2012-3-14,83.4,73.8,68.2,71.0,68.4,66.0,95,83,62,30.05,29.96,7,2,14,0.02
2012-3-15,83.5,73.9,66.4,69.0,66.7,64.0,92,79,58,30.07,29.97,10,2,14,0.00
2012-3-16,83.8,74.6,69.1,70.0,67.3,64.0,94,79,53,30.05,29.94,15,2,17,0.03
2012-3-17,85.2,75.6,67.0,70.0,66.8,61.0,93,76,49,30.05,29.93,8,2,13,0.00
2012-3-18,81.7,71.7,67.1,70.0,67.3,65.0,94,86,66,30.02,29.92,8,2,13,0.05
2012-3-19,80.6,71.7,67.0,70.0,67.7,65.0,96,87,66,29.98,29.89,12,2,15,0.22
2012-3-20,82.3,71.8,68.5,72.0,68.1,66.0,96,88,65,29.99,29.89,9,2,18,0.88
2012-3-21,80.0,72.0,66.3,73.0,68.5,65.0,96,89,71,30.01,29.91,12,2,15,0.18
2012-3-22,80.7,70.1,67.6,71.0,68.1,66.0,97,93,69,29.99,29.91,5,1,11,0.68
2012-3-23,76.4,71.0,67.4,72.0,68.6,66.0,97,92,82,29.97,29.88,5,1,10,0.18
2012-3-24,79.1,71.3,68.6,73.0,69.3,67.0,97,93,77,29.99,29.89,6,1,15,0.38
2012-3-25,79.3,72.6,69.0,73.0,69.9,68.0,97,91,77,29.99,29.90,9,1,14,0.31
2012-3-26,82.6,75.0,69.1,74.0,70.8,68.0,96,87,71,29.96,29.86,10,2,17,0.00
2012-3-27,86.6,73.1,67.9,75.0,69.0,66.0,96,88,60,30.00,29.89,10,2,11,1.29
2012-3-28,81.8,74.2,68.7,74.0,70.6,67.0,96,89,73,30.00,29.90,13,3,18,0.04
2012-3-29,76.8,72.7,69.2,72.0,70.3,68.0,97,92,82,30.00,29.91,8,2,13,0.36
2012-3-30,76.4,71.7,69.7,75.0,70.7,69.0,98,96,90,30.05,29.94,9,2,15,1.40
2012-3-31,78.2,73.7,71.5,75.0,71.2,69.0,97,91,84,30.06,29.95,12,2,17,0.08
2012-4-1,82.6,75.4,70.4,73.0,70.4,69.0,95,85,70,29.99,29.86,10,2,16,0.00
2012-4-2,84.5,76.1,69.8,73.0,69.5,66.0,96,81,57,29.93,29.82,8,2,14,0.00
2012-4-3,86.4,75.6,68.0,74.0,69.5,66.0,95,82,54,29.94,29.84,8,1,11,0.00
2012-4-4,84.1,75.7,69.7,75.0,70.6,68.0,96,85,63,29.95,29.85,7,2,11,0.02
2012-4-5,82.8,76.0,71.7,74.0,71.0,69.0,94,85,66,29.95,29.85,11,2,14,0.00
2012-4-6,85.0,75.8,71.5,75.0,71.1,69.0,96,86,62,29.95,29.86,7,2,17,0.00
2012-4-7,83.8,76.3,70.8,74.0,70.4,66.0,94,83,56,29.98,29.88,7,2,11,0.01
2012-4-8,84.6,76.0,70.5,74.0,71.0,69.0,96,85,64,29.95,29.85,7,1,9,0.02
2012-4-9,81.8,73.5,69.7,73.0,70.8,68.0,96,91,73,29.92,29.85,6,2,11,0.24
2012-4-10,81.2,73.5,69.3,75.0,70.5,68.0,97,90,69,29.96,29.86,8,2,14,0.07
2012-4-11,83.5,75.3,71.2,74.0,69.2,-99.9,97,84,68,29.99,29.90,9,-10,16,0.01
2012-4-12,86.3,78.5,73.1,75.0,72.3,71.0,93,82,62,29.97,29.88,9,2,16,0.00
2012-4-13,86.7,74.2,69.9,76.0,70.6,68.0,97,89,62,29.98,29.90,10,2,14,0.00
2012-4-14,78.8,72.8,71.2,75.0,70.8,69.0,97,93,85,30.01,29.92,13,3,20,0.09
2012-4-15,77.1,73.1,70.4,69.0,65.6,63.0,90,77,64,30.05,29.95,14,5,23,0.00
2012-4-16,79.1,73.5,69.1,66.0,63.1,60.0,79,70,54,30.05,29.96,16,3,19,0.00
2012-4-17,84.0,73.9,67.4,67.0,64.4,60.0,81,73,55,30.02,29.93,8,1,13,0.00
2012-4-18,81.0,73.2,67.1,68.0,64.7,63.0,87,75,60,30.01,29.91,10,2,14,0.00
2012-4-19,81.9,72.9,65.4,68.0,64.5,61.0,87,75,58,29.97,29.87,7,2,12,0.00
2012-4-20,85.0,74.4,65.8,71.0,67.9,63.0,93,81,60,29.94,29.84,8,2,12,0.00
2012-4-21,85.1,76.4,70.2,74.0,71.8,68.0,94,86,68,29.93,29.84,7,2,15,0.00
2012-4-22,83.1,76.5,73.1,77.0,73.7,72.0,97,91,76,29.94,29.84,9,2,16,0.00
2012-4-23,83.7,77.6,75.0,78.0,74.3,73.0,95,89,74,29.91,29.83,13,4,18,0.00
2012-4-24,85.1,78.1,73.8,76.0,73.5,72.0,95,86,71,29.92,29.83,11,3,21,0.00
2012-4-25,85.2,78.2,73.4,75.0,73.3,71.0,94,85,70,29.99,29.86,10,2,14,0.00
2012-4-26,83.8,77.6,73.9,76.0,73.0,71.0,94,86,71,30.00,29.91,11,2,16,0.00
2012-4-27,81.5,76.0,72.0,76.0,71.8,69.0,96,87,72,30.01,29.92,8,2,15,0.00
2012-4-28,83.4,76.3,69.8,72.0,69.6,67.0,95,81,60,29.99,29.91,11,2,17,0.00
2012-4-29,81.6,74.9,70.8,75.0,71.3,68.0,95,88,78,30.00,29.92,8,2,16,0.00
2012-4-30,80.3,73.7,71.4,74.0,70.9,69.0,95,91,76,29.98,29.90,8,1,17,0.00
2012-5-1,83.6,76.2,69.3,74.0,70.4,68.0,96,83,65,29.97,29.89,10,2,16,0.00
2012-5-2,81.0,75.0,72.8,76.0,72.9,71.0,97,93,80,29.97,29.88,8,2,12,0.00
2012-5-3,83.6,76.9,71.5,76.0,72.6,70.0,97,87,64,29.95,29.88,6,1,10,0.00
2012-5-4,83.0,73.7,70.1,76.0,72.0,69.0,98,94,75,29.94,29.86,14,1,21,0.00
2012-5-5,85.4,73.5,68.3,77.0,71.2,67.0,98,93,73,29.92,29.83,8,2,14,0.00
2012-5-6,80.0,73.9,71.7,75.0,72.3,71.0,98,95,82,29.90,29.83,6,1,11,0.00
2012-5-7,82.2,75.4,70.5,75.0,71.7,69.0,97,88,76,29.92,29.82,8,2,11,0.00
2012-5-8,88.3,77.0,71.3,77.0,72.7,70.0,96,87,67,29.92,29.85,8,1,13,0.00
2012-5-9,85.2,78.1,73.5,77.0,74.2,72.0,97,88,76,29.91,29.84,7,2,15,0.00
2012-5-10,83.9,76.0,71.1,77.0,72.9,68.0,96,90,77,29.95,29.84,10,2,15,0.00
2012-5-11,83.8,77.5,74.6,78.0,75.1,73.0,96,92,77,30.01,29.90,8,2,15,0.00
2012-5-12,86.0,79.5,76.0,77.0,75.1,73.0,95,86,72,30.04,29.95,9,2,16,0.00
2012-5-13,85.0,78.5,74.4,77.0,74.5,72.0,95,87,73,30.01,29.92,7,2,13,0.00
2012-5-14,85.3,77.7,72.1,76.0,72.6,71.0,96,85,65,29.99,29.91,8,1,12,0.00
2012-5-15,85.8,77.6,71.2,75.0,71.9,69.0,96,83,64,30.00,29.92,7,2,16,0.00
2012-5-16,83.1,76.2,72.8,76.0,73.1,71.0,97,90,76,29.98,29.90,9,2,17,0.00
2012-5-17,79.5,74.9,72.1,76.0,73.3,71.0,97,94,85,29.97,29.89,18,3,20,0.00
2012-5-18,79.8,75.0,72.0,77.0,73.6,71.0,98,95,88,29.95,29.88,10,2,21,0.00
2012-5-19,83.0,77.4,73.1,76.0,73.8,72.0,97,89,74,29.96,29.88,9,3,17,0.00
2012-5-20,83.7,77.4,74.1,76.0,74.1,72.0,95,89,76,30.01,29.92,10,3,18,0.00
2012-5-21,82.3,75.9,73.3,77.0,71.8,-99.9,95,89,79,30.05,29.96,10,-9,16,0.00
2012-5-22,83.3,76.1,73.7,76.0,71.7,-99.9,97,89,75,30.02,29.94,11,-11,17,0.00
2012-5-23,82.9,77.5,74.2,76.0,73.8,73.0,96,88,78,30.02,29.94,10,3,18,0.00
2012-5-24,83.3,78.4,74.4,75.0,72.7,71.0,93,83,72,30.03,29.96,9,2,15,0.00
2012-5-25,84.2,78.1,73.5,75.0,71.8,69.0,93,81,67,30.02,29.94,9,2,15,0.00
2012-5-26,84.7,76.6,69.3,73.0,69.8,68.0,96,81,58,30.00,29.90,7,2,12,0.00
2012-5-27,83.9,77.2,70.6,75.0,72.1,69.0,95,84,67,29.98,29.90,11,2,16,0.00
2012-5-28,84.6,77.9,72.9,76.0,73.2,71.0,96,86,72,29.98,29.91,10,2,17,0.00
2012-5-29,84.8,77.0,72.2,75.0,70.9,-99.9,95,84,68,29.97,29.90,7,-12,18,0.00
2012-5-30,86.9,79.3,74.7,77.0,74.5,73.0,94,85,67,29.98,29.88,11,2,14,0.00
2012-5-31,83.8,79.0,75.7,80.0,75.7,74.0,96,90,77,30.03,29.93,8,2,17,0.00
2012-6-1,85.7,80.1,76.2,78.0,75.6,74.0,96,87,75,30.06,29.97,12,3,17,0.00
2012-6-2,86.4,79.8,75.5,76.0,73.7,71.0,93,82,64,30.06,29.98,8,3,13,0.00
2012-6-3,88.3,79.6,74.0,76.0,73.9,72.0,95,83,65,30.03,29.93,11,2,14,0.00
2012-6-4,87.1,78.8,72.3,76.0,72.2,71.0,95,81,62,29.99,29.90,8,2,15,0.00
2012-6-5,86.5,78.9,71.8,74.0,72.3,70.0,94,81,63,30.00,29.92,12,2,15,0.00
2012-6-6,86.2,79.7,75.9,77.0,75.4,73.0,96,87,69,30.06,29.95,11,3,16,0.00
2012-6-7,86.1,80.6,76.7,79.0,75.6,74.0,93,85,73,30.04,29.95,10,3,18,0.00
2012-6-8,87.0,80.4,76.6,77.0,74.8,73.0,93,83,66,30.01,29.89,8,2,15,0.00
2012-6-9,89.0,80.7,74.9,77.0,73.0,70.0,94,79,55,29.98,29.91,5,1,13,0.00
2012-6-10,88.9,80.0,73.3,76.0,73.3,72.0,94,80,62,29.99,29.91,6,2,13,0.00
2012-6-11,88.5,80.7,74.4,76.0,73.4,70.0,93,79,57,29.97,29.90,9,2,18,0.00
2012-6-12,87.8,81.0,76.7,77.0,74.9,73.0,95,82,61,29.96,29.90,12,2,15,0.00
2012-6-13,85.9,80.3,75.8,77.0,74.4,73.0,94,83,66,30.00,29.91,13,2,16,0.01
2012-6-14,89.3,81.0,75.6,77.0,74.0,71.0,95,80,57,30.01,29.95,7,1,13,0.00
2012-6-15,88.2,79.3,74.4,76.0,71.0,-99.9,92,78,59,29.99,29.92,8,-9,17,0.00
2012-6-16,87.3,79.6,73.3,77.0,74.6,72.0,95,85,69,29.98,29.87,9,2,13,0.00
2012-6-17,84.0,78.4,73.4,79.0,75.7,72.0,96,91,79,29.99,29.89,10,2,16,0.12
2012-6-18,82.9,78.6,76.3,77.0,75.2,73.0,95,89,74,30.03,29.92,18,3,19,0.05
2012-6-19,85.1,79.0,73.9,77.0,74.2,72.0,96,85,68,30.02,29.93,10,2,17,0.08
2012-6-20,86.3,79.5,76.3,78.0,75.9,74.0,96,89,71,30.00,29.92,8,2,14,0.04
2012-6-21,86.2,80.8,76.9,79.0,75.9,74.0,95,85,72,29.96,29.89,7,3,19,0.13
2012-6-22,86.8,80.3,75.9,77.0,74.8,74.0,93,84,70,30.00,29.92,9,3,16,0.04
2012-6-23,89.0,80.7,75.9,78.0,74.4,71.0,94,81,65,30.04,29.97,8,2,16,0.02
2012-6-24,87.8,80.5,75.1,76.0,73.2,71.0,92,79,61,30.04,29.96,9,2,15,0.00
2012-6-25,86.1,78.6,75.2,78.0,73.6,71.0,93,85,62,30.02,29.94,11,2,17,0.00
2012-6-26,83.9,79.2,75.3,78.0,74.6,73.0,93,86,71,30.03,29.95,8,3,17,0.05
2012-6-27,88.5,81.4,77.2,77.0,75.3,73.0,94,82,63,30.07,30.00,8,2,16,0.01
2012-6-28,87.7,80.2,74.6,77.0,73.8,70.0,92,81,65,30.07,29.99,7,2,15,0.00
2012-6-29,88.1,78.3,73.0,76.0,72.3,70.0,94,82,58,30.01,29.93,8,1,13,0.00
2012-6-30,87.9,80.4,72.9,76.0,72.8,71.0,94,79,60,30.01,29.93,8,2,14,0.00
2012-7-1,88.2,80.4,74.1,78.0,73.6,71.0,93,80,62,30.02,29.95,10,2,20,0.00
2012-7-2,86.7,79.0,73.3,78.0,75.0,71.0,95,88,72,30.02,29.94,11,2,15,0.03
2012-7-3,87.5,80.1,75.5,78.0,74.7,72.0,95,84,68,30.02,29.93,11,2,15,0.00
2012-7-4,86.9,76.5,71.5,77.0,72.8,70.0,97,89,64,29.99,29.90,8,1,26,0.00
2012-7-5,77.0,72.3,69.1,76.0,71.4,68.0,98,97,96,30.01,29.89,9,2,21,0.68
2012-7-6,86.7,79.7,73.2,78.0,74.2,72.0,96,84,65,30.00,29.94,13,2,16,0.72
2012-7-7,84.7,79.1,74.0,77.0,74.1,72.0,94,85,70,30.00,29.93,7,1,14,0.43
2012-7-8,87.2,79.4,72.7,76.0,73.6,71.0,95,83,66,29.99,29.91,7,1,15,0.06
2012-7-9,85.0,78.3,73.0,77.0,73.8,72.0,97,87,67,29.98,29.90,8,2,17,0.02
2012-7-10,86.5,80.3,74.2,77.0,74.9,73.0,97,84,69,30.01,29.92,7,2,18,0.01
2012-7-11,88.5,81.1,76.3,77.0,74.8,73.0,92,81,65,29.99,29.88,8,2,15,0.00
2012-7-12,84.8,77.9,74.2,77.0,73.4,72.0,93,86,72,29.95,29.87,6,1,16,0.00
2012-7-13,86.2,78.0,72.2,77.0,73.4,71.0,97,86,68,30.00,29.89,10,2,15,0.00
2012-7-14,86.9,79.1,73.5,78.0,75.0,71.0,97,88,68,30.05,29.95,8,2,17,0.00
2012-7-15,85.9,79.6,75.0,79.0,75.9,73.0,95,89,74,30.05,29.96,15,2,17,0.00
2012-7-16,87.8,81.2,76.9,78.0,75.7,72.0,95,84,65,30.02,29.94,11,2,15,0.00
2012-7-17,88.1,80.4,74.8,77.0,74.3,72.0,95,82,63,30.04,29.94,10,2,17,0.00
2012-7-18,87.0,79.2,74.3,77.0,74.0,73.0,94,84,66,30.04,29.96,8,1,20,0.00
2012-7-19,85.0,78.6,74.3,79.0,75.1,73.0,95,89,78,30.05,29.96,8,2,15,0.00
2012-7-20,81.6,78.0,75.3,78.0,75.5,74.0,96,92,84,30.00,29.91,8,2,21,0.00
2012-7-21,86.2,80.5,75.6,80.0,76.2,74.0,96,87,73,30.05,29.92,10,2,18,0.00
2012-7-22,88.5,81.7,77.2,80.0,76.6,74.0,95,85,69,30.08,29.98,10,2,18,0.00
2012-7-23,88.1,81.0,76.2,76.0,73.6,70.0,92,79,63,30.07,29.97,12,2,18,0.00
2012-7-24,87.6,80.6,74.7,77.0,74.3,70.0,92,82,66,30.04,29.96,8,2,16,0.00
2012-7-25,86.9,80.4,75.5,78.0,74.7,73.0,96,83,66,30.02,29.96,9,2,14,0.00
2012-7-26,88.9,80.2,72.8,77.0,73.4,71.0,95,81,60,30.03,29.96,8,2,14,0.00
2012-7-27,87.8,79.9,74.9,75.0,72.1,67.0,90,78,51,30.04,29.95,9,2,16,0.00
2012-7-28,90.5,81.1,73.9,79.0,74.2,71.0,93,80,62,30.02,29.93,11,2,13,0.00
2012-7-29,88.6,80.2,74.4,79.0,75.6,73.0,96,86,69,29.98,29.90,11,1,15,0.00
2012-7-30,87.5,79.2,75.3,79.0,75.4,73.0,96,88,71,29.96,29.87,11,2,19,0.24
2012-7-31,78.3,76.4,72.7,76.0,75.1,72.0,98,96,93,30.01,29.90,7,1,12,1.20
2012-8-1,85.8,79.7,74.3,79.0,76.0,73.0,98,89,74,30.01,29.93,7,2,17,0.63
2012-8-2,88.8,81.0,75.5,78.0,74.6,71.0,97,82,59,30.00,29.91,10,2,14,0.00
2012-8-3,85.6,78.6,74.7,77.0,72.3,-99.9,95,83,69,29.97,29.88,7,-10,13,0.08
2012-8-4,83.2,78.2,73.7,78.0,75.0,72.0,96,90,81,30.02,29.89,11,3,16,0.32
2012-8-5,86.5,81.2,77.6,78.0,75.7,73.0,92,84,72,30.03,29.96,10,3,14,0.00
2012-8-6,88.4,80.4,74.6,78.0,74.3,72.0,94,82,63,30.02,29.91,8,1,12,0.01
2012-8-7,86.6,78.4,72.0,77.0,74.6,70.0,96,88,70,29.96,29.89,8,2,18,1.19
2012-8-8,84.3,78.2,74.5,78.0,75.5,73.0,97,91,74,29.97,29.90,6,1,10,0.09
2012-8-9,86.8,80.2,75.1,79.0,75.4,73.0,96,85,65,29.97,29.90,12,2,13,0.05
2012-8-10,87.4,81.4,76.2,79.0,76.3,74.0,95,85,70,29.99,29.92,10,2,16,0.00
2012-8-11,88.1,81.2,75.8,77.0,74.9,73.0,92,81,62,29.99,29.92,7,2,15,0.00
2012-8-12,85.2,79.8,70.4,78.0,74.2,68.0,94,83,71,30.02,29.90,14,2,18,0.44
2012-8-13,84.9,77.4,70.8,79.0,73.9,69.0,96,89,78,30.01,29.94,7,1,14,0.02
2012-8-14,87.2,80.5,73.7,77.0,73.9,71.0,96,81,60,30.01,29.91,7,1,13,0.00
2012-8-15,87.9,79.4,74.8,78.0,74.8,73.0,95,86,67,30.01,29.92,8,1,15,0.02
2012-8-16,87.1,79.8,74.5,79.0,75.8,73.0,97,88,72,30.01,29.93,8,1,13,0.11
2012-8-17,85.9,78.9,74.0,80.0,76.0,73.0,96,91,76,30.00,29.91,5,1,13,0.45
2012-8-18,85.5,79.2,76.4,79.0,74.6,-99.9,97,88,76,30.02,29.92,10,-10,14,0.13
2012-8-19,87.6,81.7,77.0,78.0,75.5,71.0,95,82,60,30.04,29.96,8,2,14,0.01
2012-8-20,88.9,80.5,74.3,77.0,74.3,72.0,95,82,59,30.04,29.95,7,2,16,0.00
2012-8-21,86.3,78.3,73.9,77.0,74.6,72.0,94,88,71,30.00,29.94,11,1,16,0.42
2012-8-22,84.7,78.9,75.8,78.0,75.6,74.0,96,89,77,29.96,29.81,12,3,19,0.30
2012-8-23,80.7,76.7,73.6,79.0,75.0,72.0,97,94,90,29.83,29.70,12,3,19,0.66
2012-8-24,77.8,74.8,72.5,75.0,72.9,71.0,97,93,90,29.93,29.79,12,3,19,2.32
2012-8-25,84.1,75.8,70.7,78.0,73.3,68.0,97,92,76,29.93,29.84,11,2,24,0.37
2012-8-26,83.1,77.8,74.8,77.0,74.6,71.0,95,90,80,30.01,29.90,7,2,13,0.00
2012-8-27,81.8,76.3,70.9,77.0,73.3,70.0,97,90,78,30.05,29.96,7,1,13,0.14
2012-8-28,85.9,79.6,74.7,79.0,75.0,73.0,96,86,71,30.05,29.95,10,2,16,0.00
2012-8-29,87.9,79.3,74.1,77.0,74.1,71.0,96,84,64,30.02,29.91,7,1,14,0.19
2012-8-30,87.3,79.5,73.8,77.0,73.8,71.0,95,83,64,29.99,29.91,9,1,14,0.01
2012-8-31,88.6,79.8,73.0,78.0,74.2,72.0,96,84,60,30.01,29.91,8,1,11,0.01
2012-9-1,88.4,80.0,74.3,77.0,73.9,72.0,94,82,65,29.96,29.87,9,2,14,0.00
2012-9-2,89.0,79.0,74.1,77.0,74.1,72.0,94,85,62,29.95,29.85,8,2,11,1.10
2012-9-3,90.5,80.2,71.9,76.0,73.1,69.0,94,80,54,30.00,29.89,9,2,13,0.00
2012-9-4,90.7,80.6,72.6,77.0,73.9,70.0,94,81,59,29.98,29.90,8,1,12,0.00
2012-9-5,88.4,80.6,74.2,79.0,75.1,72.0,94,84,68,29.98,29.89,6,1,15,0.00
2012-9-6,91.8,81.4,74.1,77.0,74.6,71.0,93,80,56,29.97,29.89,5,1,12,0.00
2012-9-7,91.1,79.9,72.9,78.0,72.1,-99.9,92,80,57,29.94,29.84,8,-10,13,0.00
2012-9-8,89.7,81.0,73.7,78.0,74.8,72.0,96,82,59,29.99,29.88,9,1,12,0.00
2012-9-9,90.0,80.7,73.7,77.0,73.9,71.0,95,81,57,30.01,29.93,9,2,12,0.00
2012-9-10,90.5,80.5,73.6,77.0,73.3,70.0,96,80,54,29.99,29.90,5,1,12,0.00
2012-9-11,88.9,79.8,71.9,78.0,73.6,70.0,94,82,58,29.98,29.87,7,1,10,0.00
2012-9-12,91.2,80.9,73.0,76.0,72.7,67.0,95,78,48,29.93,29.82,8,1,11,0.00
2012-9-13,87.5,80.0,74.7,77.0,75.1,73.0,96,85,67,29.93,29.84,6,1,13,0.01
2012-9-14,87.1,79.5,74.6,79.0,75.4,73.0,96,87,73,29.95,29.87,8,1,11,0.06
2012-9-15,89.4,80.7,74.9,78.0,75.3,74.0,97,84,65,29.96,29.87,7,1,11,0.00
2012-9-16,90.4,80.2,73.7,78.0,74.3,72.0,97,83,58,29.95,29.87,5,1,10,0.00
2012-9-17,89.7,80.1,73.8,79.0,74.9,72.0,96,84,65,29.97,29.88,8,1,13,0.00
2012-9-18,84.7,78.3,75.3,79.0,75.5,74.0,96,91,80,29.99,29.89,4,1,12,0.20
2012-9-19,89.4,81.1,74.8,80.0,75.6,71.0,97,84,56,29.96,29.86,8,2,13,0.00
2012-9-20,88.3,79.7,76.9,79.0,73.9,-99.9,95,85,65,29.93,29.79,7,-10,17,0.02
2012-9-21,88.4,80.5,74.0,77.0,74.8,73.0,96,83,65,29.92,29.81,12,2,16,0.00
2012-9-22,88.7,80.7,74.6,78.0,75.0,73.0,95,84,64,29.98,29.88,9,2,11,0.00
2012-9-23,89.3,81.3,75.9,78.0,74.7,71.0,95,81,55,30.01,29.91,7,2,14,0.02
2012-9-24,90.3,81.1,74.8,78.0,73.5,70.0,93,79,54,29.97,29.86,9,2,13,0.00
2012-9-25,86.1,78.6,73.6,77.0,74.2,71.0,93,86,70,29.97,29.90,4,1,9,0.04
2012-9-26,86.1,76.8,74.6,77.0,74.4,73.0,96,92,70,29.97,29.88,7,1,12,0.98
2012-9-27,86.4,77.3,72.6,78.0,74.7,71.0,97,92,70,29.94,29.85,5,1,10,0.02
2012-9-28,87.1,78.5,72.6,77.0,74.3,71.0,97,87,66,29.93,29.84,8,1,11,0.00
2012-9-29,87.3,79.7,74.3,79.0,75.3,73.0,95,87,71,29.95,29.87,10,2,16,0.00
2012-9-30,87.0,80.4,76.2,79.0,76.2,74.0,95,87,74,29.97,29.89,6,2,12,0.00
2012-10-1,88.8,80.1,75.6,79.0,75.7,74.0,97,87,68,29.97,29.88,11,2,17,0.16
2012-10-2,87.5,78.7,74.7,78.0,73.2,-99.9,96,85,62,30.00,29.92,9,-9,16,0.19
2012-10-3,86.5,78.6,72.7,76.0,73.3,71.0,96,84,63,30.02,29.93,11,1,13,0.15
2012-10-4,90.1,77.6,72.1,76.0,72.8,70.0,93,85,60,29.98,29.86,7,1,14,0.09
2012-10-5,78.7,74.7,73.1,74.0,72.0,71.0,94,91,85,29.89,29.83,2,1,5,0.00
2012-10-7,87.1,82.8,77.1,78.0,75.0,73.0,91,78,67,29.93,29.83,10,3,14,0.09
2012-10-8,85.4,77.9,74.3,79.0,75.2,73.0,97,91,74,29.99,29.89,10,2,13,1.10
2012-10-9,87.6,78.1,73.3,79.0,74.7,72.0,96,90,66,29.98,29.87,7,1,10,0.20
2012-10-10,85.8,78.1,73.2,78.0,74.4,72.0,96,89,69,29.94,29.84,5,1,13,0.00
2012-10-11,84.3,76.9,74.0,78.0,74.4,72.0,96,92,82,29.91,29.83,5,1,13,0.65
2012-10-12,86.3,78.0,74.0,78.0,74.7,72.0,95,89,74,29.88,29.80,4,1,18,0.16
2012-10-13,85.0,78.2,75.5,79.0,76.1,74.0,97,93,78,29.81,29.69,8,2,12,0.17
2012-10-14,83.0,78.4,75.8,78.0,75.7,74.0,97,91,83,29.73,29.63,8,3,13,0.03
2012-10-15,86.6,80.3,74.8,78.0,74.9,72.0,93,84,70,29.73,29.63,11,2,23,0.01
2012-10-16,88.3,81.4,76.6,79.0,75.3,73.0,92,82,69,29.82,29.68,18,3,20,0.00
2012-10-17,89.0,79.4,74.2,80.0,75.7,73.0,97,89,73,29.90,29.78,5,1,10,0.00
2012-10-18,86.7,78.6,73.8,80.0,75.2,73.0,97,89,74,29.90,29.80,6,1,11,0.00
2012-10-19,80.7,76.0,73.2,78.0,73.8,72.0,97,93,86,29.89,29.81,10,1,15,0.00
2012-10-20,86.1,77.8,73.8,78.0,74.3,73.0,96,89,69,29.91,29.81,10,1,17,0.00
2012-10-21,85.5,77.0,73.6,79.0,74.2,72.0,95,91,74,29.88,29.78,8,1,14,0.01
2012-10-22,85.6,77.3,72.6,78.0,73.8,71.0,96,89,70,29.85,29.75,8,1,14,0.00
2012-10-23,85.8,78.3,73.3,76.0,73.1,71.0,92,84,67,29.84,29.73,9,1,11,0.01
2012-10-24,84.6,78.4,74.8,77.0,74.0,72.0,90,86,75,29.84,29.76,8,2,15,0.00
2012-10-25,83.5,78.1,72.9,77.0,74.2,70.0,91,88,76,29.84,29.75,9,3,17,0.00
2012-10-26,84.3,77.0,73.3,79.0,72.4,68.0,89,85,82,29.83,29.75,11,3,17,0.00
2012-10-29,89.5,80.1,76.9,79.0,70.7,-99.9,82,77,69,29.88,29.78,6,-21,12,0.00
2012-10-30,86.9,79.7,74.8,78.0,71.6,67.0,80,76,70,29.95,29.84,11,2,12,0.01
2012-10-31,88.4,79.5,73.8,77.0,70.2,65.0,76,73,66,29.96,29.85,5,1,10,0.01
2012-11-1,86.8,77.9,73.3,77.0,68.2,63.0,74,72,68,29.95,29.84,11,1,16,0.00
2012-11-2,86.6,77.8,72.0,75.0,66.4,60.0,72,68,65,29.95,29.86,6,1,9,0.00
2012-11-3,84.3,76.8,72.8,73.0,63.5,59.0,70,64,60,29.96,29.88,3,1,9,0.00
2012-11-4,86.1,78.6,72.5,74.0,64.5,55.0,69,62,54,29.95,29.86,6,1,10,0.00
2012-11-5,84.3,78.0,73.8,72.0,58.1,49.0,66,51,39,29.92,29.82,9,1,13,0.00
2012-11-6,86.4,78.5,73.5,73.0,49.6,16.0,65,40,10,29.92,29.82,7,1,12,0.00
2012-11-7,85.2,78.4,73.6,71.0,40.4,-11.0,64,31,3,29.91,29.81,8,2,15,0.00
2012-11-8,86.0,79.0,74.6,71.0,22.9,-99.9,63,29,2,29.93,29.83,5,1,12,0.02
2012-11-9,86.3,78.6,73.2,70.0,-3.9,-202.0,60,19,2,29.91,29.82,7,1,10,0.00
2012-11-10,85.0,78.9,74.7,68.0,-17.0,-202.0,60,20,1,29.91,29.82,12,2,15,0.00
2012-11-12,85.3,78.5,73.8,60.0,-67.3,-99.9,43,4,1,29.91,29.80,8,1,18,0.00
2012-11-13,84.3,76.7,72.7,43.0,-84.4,-202.0,25,2,2,29.92,29.83,5,1,12,0.00
2012-11-14,81.1,76.1,72.6,-99.9,-99.9,-202.0,0,0,100,29.95,29.84,7,1,10,0.00
2012-11-15,85.9,77.6,72.1,67.0,-51.5,-202.0,55,13,4,29.92,29.82,5,1,8,0.00
2012-11-16,84.9,77.2,71.7,58.0,-65.2,-202.0,41,5,5,29.91,29.82,5,1,10,0.00
2012-11-17,84.8,77.4,72.7,49.0,-72.1,-202.0,30,4,3,29.95,29.85,9,1,13,0.00
2012-11-18,74.3,73.9,73.1,-99.9,-99.9,-202.0,0,0,100,29.92,29.88,1,0,3,0.00
2012-11-21,86.3,75.6,71.5,57.0,-78.5,-202.0,37,3,1,29.87,0.00,7,-16,8,0.00
2012-11-22,84.3,76.0,70.3,-99.9,-99.9,-202.0,0,0,100,29.90,29.80,7,1,12,0.00
2012-11-23,85.5,74.7,70.1,-99.9,-99.9,-202.0,0,0,100,29.93,29.83,8,1,16,0.00
2012-11-24,83.9,75.2,69.8,25.0,-95.5,-202.0,12,0,3,29.96,29.86,6,1,11,0.00
2012-11-25,83.8,75.1,70.1,38.0,-78.9,-202.0,21,2,1,30.03,29.91,6,-9,12,0.00
2012-11-26,81.7,74.6,72.2,58.0,-59.3,-202.0,45,8,2,30.05,29.96,13,-18,18,0.00
2012-11-27,85.3,76.3,71.8,55.0,-79.7,-202.0,38,3,1,30.04,29.93,5,1,8,0.00
2012-11-28,85.3,75.9,70.5,51.0,-74.1,-202.0,31,3,1,29.99,29.89,5,1,13,0.00
2012-11-29,86.1,76.4,70.1,65.0,-65.5,-202.0,50,7,1,29.97,29.88,5,1,14,0.00
2012-11-30,82.8,75.5,69.2,64.0,-53.0,-202.0,55,10,2,29.95,29.86,11,1,12,0.00
2012-12-1,82.2,71.6,68.2,-99.9,-99.9,-202.0,0,0,100,29.94,29.85,8,1,10,0.00
2012-12-2,83.2,73.2,68.4,27.0,-97.3,-202.0,13,0,3,29.91,29.80,9,1,11,0.00
2012-12-3,82.5,71.9,69.1,-99.9,-99.9,-202.0,0,0,100,29.93,29.80,8,1,12,0.00
2012-12-4,81.1,74.5,69.5,34.0,-78.1,-202.0,19,2,1,29.98,29.88,15,2,18,0.00
2012-12-5,83.7,74.3,69.4,58.0,-60.6,-202.0,46,8,1,29.97,29.86,4,1,16,0.00
2012-12-6,83.0,73.9,68.3,59.0,-65.4,-202.0,46,7,11,29.93,29.82,5,1,11,0.00
2012-12-7,79.1,73.5,68.4,31.0,-56.3,-202.0,18,4,1,29.97,29.84,7,1,10,0.00
2012-12-8,82.2,74.2,66.8,48.0,-74.4,-202.0,30,3,1,30.02,29.89,11,1,15,0.00
2012-12-9,84.7,75.0,69.8,65.0,-56.0,-202.0,53,10,11,30.05,29.96,8,1,11,0.00
2012-12-10,83.3,75.2,68.4,63.0,-35.3,-202.0,51,12,1,30.01,29.90,9,1,13,0.00
2012-12-11,82.8,73.3,68.5,60.0,-67.3,-202.0,46,6,2,30.01,29.92,11,1,16,0.00
2012-12-12,82.8,75.3,69.9,51.0,-53.3,-202.0,33,7,1,30.02,29.93,8,2,15,0.00
2012-12-19,77.3,72.3,68.9,-99.9,-99.9,-202.0,0,0,100,29.97,29.91,6,2,12,0.00
2012-12-20,79.8,71.8,67.7,49.0,-78.0,-202.0,36,3,1,29.99,29.90,10,2,16,0.00
2012-12-21,74.9,69.6,68.0,-99.9,-99.9,-202.0,0,0,100,29.99,29.89,3,-11,9,0.00
2012-12-22,79.7,73.1,68.6,48.0,-66.4,-202.0,36,5,1,29.98,29.89,5,0,11,0.00
2012-12-23,79.9,72.4,67.0,58.0,-25.4,-202.0,50,16,2,30.01,29.90,6,1,11,0.00
2012-12-24,81.8,71.8,64.1,58.0,-53.9,-202.0,47,10,1,30.00,29.89,9,1,15,0.00
2012-12-25,82.5,72.1,68.3,27.0,-97.4,-202.0,13,0,8,29.99,29.89,5,0,9,0.00
2012-12-26,83.2,74.6,70.1,18.0,-96.1,-202.0,9,0,7,30.01,29.92,5,1,10,0.00
2012-12-27,83.1,75.2,70.6,-99.9,-99.9,-202.0,0,0,100,30.02,29.92,7,2,12,0.00
2012-12-28,83.6,75.4,70.8,60.0,-71.3,-202.0,46,5,1,30.03,29.93,7,1,15,0.00
2012-12-29,82.7,73.3,69.0,54.0,-75.0,-202.0,39,5,2,30.04,29.94,5,1,14,0.00
2012-12-30,84.6,72.9,66.3,66.0,-58.5,-202.0,55,11,4,30.06,0.00,5,-10,9,0.00
2012-12-31,79.9,71.4,69.0,33.0,-87.5,-202.0,18,1,4,30.08,29.99,6,1,11,0.00
2013-1-1,82.2,72.5,68.1,47.0,-92.1,-202.0,29,1,1,30.06,29.96,8,1,13,0.00